Cape Coral Yacht Club FL US WEATHERSTEM current weather conditions

sailwx.info

Wind from 005 at 3 knots gusting 4

Air temperature 19.7° C
Dewpoint 11.2° C

Last reported at 2019-Dec-05 23:00 UTC.
Time now 2019-Dec-06 00:16 UTC

Location: N 26°33' W 081°57'.
View on Google Maps.

See reports from other nearby stations

  
Tides and Currents Weather Stations Pressure Air Temp Water Temp Dewpoint Dewpoint Depression Visibility Wind Speed Wind Dir Waves Ship Positions
date/time (UTC)wind fromknots sea level pressurealtimeterstation pressurevisibilityair tempwater tempwave heightnotes
2019-Dec-05 23:00 005 3 gusting 4 19.7
2019-Dec-05 22:50 010 2 gusting 6 20.0
2019-Dec-05 22:40 029 3 gusting 6 20.2
2019-Dec-05 22:30 005 4 gusting 7 20.4
2019-Dec-05 22:20 024 3 gusting 7 20.7
2019-Dec-05 22:10 344 4 gusting 6 20.9
2019-Dec-05 22:00 355 2 gusting 8 21.1
2019-Dec-05 21:50 355 2 gusting 9 21.1
2019-Dec-05 21:40 355 3 gusting 7 21.2
2019-Dec-05 21:30 337 3 gusting 7 21.4
2019-Dec-05 21:20 355 1 gusting 10 21.4
2019-Dec-05 21:10 350 2 gusting 7 21.5
2019-Dec-05 21:00 334 7 gusting 8 21.6
2019-Dec-05 20:50 348 3 gusting 8 21.7
2019-Dec-05 20:30 344 2 gusting 9 21.7
2019-Dec-05 20:20 331 3 gusting 6 21.7
2019-Dec-05 20:10 298 2 gusting 7 21.8
2019-Dec-05 20:00 290 1 gusting 8 21.4
2019-Dec-05 19:50 21.4
2019-Dec-05 19:40 032 4 gusting 7 20.8
2019-Dec-05 19:30 040 2 gusting 9 20.9
2019-Dec-05 19:20 059 5 gusting 8 20.5
2019-Dec-05 19:10 057 6 gusting 8 20.1
2019-Dec-05 19:00 052 5 gusting 8 20.1
2019-Dec-05 18:50 055 2 gusting 8 20.1
2019-Dec-05 18:40 068 3 gusting 7 19.7
2019-Dec-05 18:30 054 3 gusting 5 20.0
2019-Dec-05 18:20 049 2 gusting 5 19.7
2019-Dec-05 18:10 059 1 gusting 5 19.3
2019-Dec-05 18:00 047 5 gusting 7 19.5
2019-Dec-05 17:50 042 2 gusting 7 19.4
2019-Dec-05 17:40 042 5 gusting 8 19.2
2019-Dec-05 17:30 062 5 gusting 9 19.0
2019-Dec-05 17:20 051 2 gusting 9 18.9
2019-Dec-05 17:10 044 6 gusting 9 18.8
2019-Dec-05 17:00 055 6 gusting 10 18.6
2019-Dec-05 16:50 044 8 gusting 9 18.2
2019-Dec-05 16:40 040 6 gusting 9 18.4
2019-Dec-05 16:30 053 5 gusting 11 18.2
2019-Dec-05 16:20 030 5 gusting 9 17.9
2019-Dec-05 16:10 026 5 gusting 10 17.8
2019-Dec-05 16:00 031 8 gusting 11 17.6
2019-Dec-05 15:50 025 9 gusting 11 17.6
2019-Dec-05 15:40 030 6 gusting 10 17.6
2019-Dec-05 15:30 042 4 gusting 9 17.3
2019-Dec-05 15:20 042 6 gusting 11 17.1
2019-Dec-05 15:10 039 5 gusting 10 17.3
2019-Dec-05 15:00 005 4 gusting 8 17.2
2019-Dec-05 14:50 044 4 gusting 8 16.9
2019-Dec-05 14:40 042 6 gusting 10 16.8
2019-Dec-05 14:20 035 2 gusting 8 16.3
2019-Dec-05 14:10 045 3 gusting 8 16.1
2019-Dec-05 14:00 036 7 gusting 9 15.8
2019-Dec-05 13:50 050 4 gusting 8 15.7
2019-Dec-05 13:40 051 5 gusting 6 15.7
2019-Dec-05 13:30 047 4 gusting 6 15.6
2019-Dec-05 13:20 053 6 gusting 6 15.4
2019-Dec-05 13:10 046 3 gusting 6 15.3
2019-Dec-05 13:00 030 2 gusting 7 15.2
2019-Dec-05 12:50 030 4 gusting 7 15.1
2019-Dec-05 12:40 045 5 gusting 6 15.0
2019-Dec-05 12:30 047 5 gusting 6 14.8
2019-Dec-05 12:20 045 4 gusting 6 14.5
2019-Dec-05 12:10 045 2 gusting 5 14.4
2019-Dec-05 12:00 046 2 gusting 4 14.4
2019-Dec-05 11:50 046 1 gusting 4 14.3
2019-Dec-05 11:40 046 1 gusting 3 14.3
2019-Dec-05 11:30 046 2 gusting 4 14.2
2019-Dec-05 11:20 046 2 gusting 4 14.2
2019-Dec-05 11:10 046 2 gusting 3 14.0
2019-Dec-05 11:00 046 1 gusting 3 14.0
2019-Dec-05 10:50 045 2 gusting 4 14.0
2019-Dec-05 10:40 038 1 gusting 4 14.4
2019-Dec-05 10:30 036 1 gusting 4 14.6
2019-Dec-05 10:00 031 2 gusting 5 14.8
2019-Dec-05 09:50 031 3 gusting 4 14.7
2019-Dec-05 09:40 031 2 gusting 4 14.7
2019-Dec-05 09:30 031 4 gusting 4 14.7
2019-Dec-05 09:20 031 3 gusting 4 14.8
2019-Dec-05 09:10 031 1 gusting 3 14.8
2019-Dec-05 09:00 031 1 gusting 5 14.9
2019-Dec-05 08:50 031 2 gusting 4 14.9
2019-Dec-05 08:40 031 4 gusting 5 14.9
2019-Dec-05 08:30 031 1 gusting 3 14.9
2019-Dec-05 08:20 026 2 gusting 4 15.3
2019-Dec-05 08:10 346 1 gusting 3 15.2
2019-Dec-05 08:00 336 2 gusting 4 14.9
2019-Dec-05 07:50 14.8
2019-Dec-05 07:30 336 0 gusting 1 14.9
2019-Dec-05 07:20 15.1
2019-Dec-05 07:10 336 1 gusting 3 15.2
2019-Dec-05 07:00 336 1 gusting 3 15.2
2019-Dec-05 06:50 329 1 gusting 3 15.2
2019-Dec-05 06:40 329 2 gusting 2 15.2
2019-Dec-05 06:30 329 0 gusting 1 15.2
2019-Dec-05 06:20 15.1
2019-Dec-05 06:10 329 0 gusting 2 15.1
2019-Dec-05 06:00 14.9
2019-Dec-05 05:50 329 2 gusting 3 15.1
2019-Dec-05 05:40 329 2 gusting 3 15.1
2019-Dec-05 05:30 329 1 gusting 2 15.1
2019-Dec-05 05:20 15.1
2019-Dec-05 05:10 329 0 gusting 1 15.1
2019-Dec-05 05:00 329 1 gusting 2 15.2
2019-Dec-05 04:50 329 1 gusting 2 15.3
2019-Dec-05 04:40 329 0 gusting 1 15.2
2019-Dec-05 04:30 329 0 gusting 1 15.2
2019-Dec-05 04:20 329 1 gusting 3 15.2
2019-Dec-05 04:10 329 0 gusting 3 15.4
2019-Dec-05 04:00 329 1 gusting 2 15.6
2019-Dec-05 03:50 329 2 gusting 2 15.7
2019-Dec-05 03:40 329 1 gusting 2 15.7
2019-Dec-05 03:30 329 2 gusting 2 15.9
2019-Dec-05 03:20 329 1 gusting 2 16.0
2019-Dec-05 03:10 329 1 gusting 2 16.1
2019-Dec-05 03:00 329 0 gusting 3 16.3
2019-Dec-05 02:50 329 2 gusting 3 16.3
2019-Dec-05 02:40 329 2 gusting 4 16.6
2019-Dec-05 02:30 322 2 gusting 4 16.7
2019-Dec-05 02:20 322 2 gusting 3 16.7
2019-Dec-05 02:10 323 2 gusting 4 16.8
2019-Dec-05 02:00 324 2 gusting 5 17.0
2019-Dec-05 01:50 317 1 gusting 6 17.1
2019-Dec-05 01:40 293 2 gusting 4 17.2
2019-Dec-05 01:30 293 2 gusting 6 17.3
2019-Dec-05 01:20 292 1 gusting 6 17.5
2019-Dec-05 01:10 287 2 gusting 4 17.6
2019-Dec-05 01:00 287 2 gusting 6 17.6
2019-Dec-05 00:50 288 1 gusting 4 17.8
2019-Dec-05 00:40 288 0 gusting 4 17.8
2019-Dec-05 00:30 288 0 gusting 2 18.0
2019-Dec-05 00:20 288 2 gusting 3 18.2
2019-Dec-05 00:10 288 0 gusting 3 18.3
2019-Dec-05 00:00 288 1 gusting 4 18.4
2019-Dec-04 23:50 288 2 gusting 4 18.6
2019-Dec-04 23:40 288 3 gusting 3 18.7
2019-Dec-04 23:30 288 3 gusting 3 18.9
2019-Dec-04 23:20 288 1 gusting 3 19.1
2019-Dec-04 23:10 288 1 gusting 3 19.3
2019-Dec-04 23:00 288 1 gusting 6 19.5
2019-Dec-04 22:50 287 4 gusting 8 19.7
2019-Dec-04 22:40 291 2 gusting 6 20.0
2019-Dec-04 22:30 288 6 gusting 7 20.2
2019-Dec-04 22:20 284 2 gusting 8 20.4
2019-Dec-04 22:10 287 3 gusting 9 20.6
2019-Dec-04 22:00 303 3 gusting 10 20.9
2019-Dec-04 21:50 292 6 gusting 11 20.9
2019-Dec-04 21:40 271 7 gusting 12 21.2
2019-Dec-04 21:30 263 9 gusting 11 21.4
2019-Dec-04 21:20 288 3 gusting 11 21.4
2019-Dec-04 21:10 290 3 gusting 13 21.4
2019-Dec-04 21:00 270 10 gusting 12 21.6
2019-Dec-04 20:50 330 11 gusting 11 21.6
2019-Dec-04 20:40 300 6 gusting 11 21.9
2019-Dec-04 20:30 300 4 gusting 10 21.8
2019-Dec-04 20:20 309 6 gusting 10 21.7
2019-Dec-04 20:10 344 4 gusting 11 21.9
2019-Dec-04 20:00 272 8 gusting 15 21.8
2019-Dec-04 19:50 291 2 gusting 12 21.6
2019-Dec-04 19:40 287 6 gusting 10 21.8
2019-Dec-04 19:30 271 3 gusting 13 21.8
2019-Dec-04 19:20 012 7 gusting 13 21.7
2019-Dec-04 19:10 342 6 gusting 12 21.8
2019-Dec-04 19:00 348 7 gusting 13 21.7
2019-Dec-04 18:50 265 3 gusting 10 22.0
2019-Dec-04 18:40 321 9 gusting 14 21.8
2019-Dec-04 18:30 278 9 gusting 13 21.9
2019-Dec-04 18:20 265 9 gusting 13 21.8
2019-Dec-04 18:10 311 5 gusting 13 21.8
2019-Dec-04 18:00 302 6 gusting 13 22.0
2019-Dec-04 17:50 306 11 gusting 13 22.2
2019-Dec-04 17:40 275 6 gusting 11 22.2
2019-Dec-04 17:30 317 6 gusting 13 21.8
2019-Dec-04 17:20 299 3 gusting 11 21.8
2019-Dec-04 17:10 329 5 gusting 9 21.6
2019-Dec-04 17:00 319 2 gusting 11 21.7
2019-Dec-04 16:50 308 3 gusting 9 21.6
2019-Dec-04 16:40 331 1 gusting 8 21.3
2019-Dec-04 16:30 332 6 gusting 10 21.4
2019-Dec-04 16:20 012 4 gusting 10 21.3
2019-Dec-04 16:10 328 3 gusting 11 21.1
2019-Dec-04 16:00 349 4 gusting 10 21.4
2019-Dec-04 15:50 325 3 gusting 12 21.2
2019-Dec-04 15:40 318 6 gusting 11 20.9
2019-Dec-04 15:30 333 2 gusting 13 20.8
2019-Dec-04 15:20 329 3 gusting 9 20.6
2019-Dec-04 15:00 317 3 gusting 9 20.8
2019-Dec-04 14:50 299 4 gusting 13 20.4
2019-Dec-04 14:40 311 10 gusting 13 20.3
2019-Dec-04 14:30 346 4 gusting 11 20.0
2019-Dec-04 14:20 320 6 gusting 7 19.7
2019-Dec-04 14:10 340 2 gusting 7 19.2
2019-Dec-04 14:00 321 3 gusting 7 18.7
2019-Dec-04 13:50 034 3 gusting 4 18.5
2019-Dec-04 13:40 103 1 gusting 5 18.1
2019-Dec-04 13:30 126 2 gusting 3 17.7
2019-Dec-04 13:20 127 1 gusting 2 17.0
2019-Dec-04 13:10 16.4
2019-Dec-04 13:00 127 1 gusting 3 16.3
2019-Dec-04 12:50 16.0
2019-Dec-04 12:40 15.7
2019-Dec-04 12:30 15.5
2019-Dec-04 12:20 15.3
2019-Dec-04 12:10 15.4
2019-Dec-04 12:00 15.1
2019-Dec-04 11:50 15.1
2019-Dec-04 11:40 15.1
2019-Dec-04 11:30 15.1
2019-Dec-04 11:20 127 0 gusting 3 14.9
2019-Dec-04 11:10 127 2 gusting 3 15.1
2019-Dec-04 11:00 14.9
2019-Dec-04 10:50 14.9
2019-Dec-04 10:40 15.0
2019-Dec-04 10:30 14.9
2019-Dec-04 10:20 127 0 gusting 3 15.0
2019-Dec-04 10:10 127 2 gusting 3 14.9
2019-Dec-04 10:00 127 3 gusting 4 15.0
2019-Dec-04 09:50 127 2 gusting 3 15.1
2019-Dec-04 09:40 127 2 gusting 6 14.9
2019-Dec-04 09:30 125 3 gusting 7 14.9
2019-Dec-04 09:20 114 2 gusting 3 15.0
2019-Dec-04 09:10 114 2 gusting 3 15.0
2019-Dec-04 09:00 114 1 gusting 3 15.0
2019-Dec-04 08:50 114 2 gusting 3 15.2
2019-Dec-04 08:40 114 2 gusting 3 15.0
2019-Dec-04 08:30 14.8
2019-Dec-04 08:20 114 2 gusting 3 14.9
2019-Dec-04 08:10 114 0 gusting 5 15.1
2019-Dec-04 08:00 115 1 gusting 3 15.2
2019-Dec-04 07:50 115 2 gusting 6 15.3
2019-Dec-04 07:40 114 2 gusting 6 15.3
2019-Dec-04 07:30 074 4 gusting 5 15.3
2019-Dec-04 07:20 350 2 gusting 3 15.5
2019-Dec-04 07:10 332 2 gusting 3 16.1
2019-Dec-04 06:50 15.6
2019-Dec-04 06:40 310 1 gusting 4 15.4
2019-Dec-04 06:30 310 2 gusting 4 15.5
2019-Dec-04 06:20 310 0 gusting 3 15.7
2019-Dec-04 06:10 310 0 gusting 3 15.6
2019-Dec-04 06:00 310 1 gusting 2 15.4
2019-Dec-04 05:50 15.6
2019-Dec-04 05:40 15.5
2019-Dec-04 05:30 15.3
2019-Dec-04 05:20 15.2
2019-Dec-04 05:10 15.1
2019-Dec-04 05:00 15.2
2019-Dec-04 04:50 14.9
2019-Dec-04 04:40 14.8
2019-Dec-04 04:30 14.8
2019-Dec-04 04:20 14.9
2019-Dec-04 04:10 15.0
2019-Dec-04 04:00 14.9
2019-Dec-04 03:50 14.9
2019-Dec-04 03:40 15.1
2019-Dec-04 03:30 15.6
2019-Dec-04 03:20 15.6
2019-Dec-04 03:10 15.4
2019-Dec-04 03:00 15.4
2019-Dec-04 02:40 15.8
2019-Dec-04 02:30 16.1
2019-Dec-04 02:20 16.1
2019-Dec-04 02:10 15.9
2019-Dec-04 02:00 16.0
2019-Dec-04 01:50 15.9
2019-Dec-04 01:40 16.0
2019-Dec-04 01:30 16.1
2019-Dec-04 01:20 16.1
2019-Dec-04 01:10 310 0 gusting 4 16.2
2019-Dec-04 01:00 310 1 gusting 4 16.2
2019-Dec-04 00:50 310 2 gusting 5 16.3
2019-Dec-04 00:40 310 0 gusting 3 16.3
2019-Dec-04 00:30 310 2 gusting 3 16.3
2019-Dec-04 00:20 310 1 gusting 6 16.3
2019-Dec-04 00:10 318 2 gusting 5 16.3
2019-Dec-04 00:00 322 2 gusting 6 16.3